Flag for Eritrea Weather past 2 weeks in Teseney, Eritrea

Now
N/A

Clear.


Feels Like: N/A
Forecast: 72 / 104 °F
Wind: 9 mph from North

Location: Khartoum Airport

Current Time: Mar 7, 2015 at 1:29:54 AM

Latest Report: Mar 7, 2015 at 12:30 AM


Visibility: 10 mi

Pressure: 29.89 "Hg

Humidity: N/A

Dew point: N/A

Location of TeseneyLocation

Historic Weather in Teseney — Graph

°F

Teseney temperature yesterday

Maximum temperature yesterday: 99 °F (at 4:00 PM)
Minimum temperature yesterday: 77 °F (at 7:00 AM)
Average temperature yesterday: 87 °F

Past Weeks' High & Low Weather Summary

 TemperatureHumidityPressure
High106 °F (Feb 27, 3:00 PM)35% (Mar 3, 10:00 AM)30.01 "Hg (Mar 3, 10:00 AM)
Low61 °F (Feb 21, 8:00 AM)1% (Feb 25, 2:00 PM)29.68 "Hg (Feb 22, 9:30 AM)
Average85 °F15%29.83 "Hg
* Reported Midnight between Feb 19 and Feb 20 — Midnight between Mar 6 and Mar 7, Teseney, Weather by CustomWeather, © 2015

Note: Actual official high and low records may vary slightly from our data, if they occured in-between our weather recording intervals... More about our weather records

Advertising

Teseney weather history for previous 24 hours

 ConditionsComfort  
Time TempWeatherWind HumidityBarometerVisibility
12:00 AM
Sat, Mar 7
86 °FClear.8 mph18%29.89 "Hg10 mi
11:30 PM
Fri, Mar 6
N/AClear.9 mphN/A29.89 "Hg10 mi
11:00 PM90 °FClear.9 mph17%29.89 "Hg10 mi
10:30 PMN/AClear.8 mphN/A29.89 "Hg10 mi
10:00 PM90 °FClear.8 mph17%29.89 "Hg10 mi
9:30 PMN/AClear.9 mphN/A29.89 "Hg10 mi
9:00 PM91 °FClear.9 mph16%29.86 "Hg10 mi
8:30 PMN/AClear.8 mphN/A29.86 "Hg10 mi
7:30 PMN/AClear.8 mphN/A29.83 "Hg10 mi
7:00 PM95 °FClear.10 mph18%29.83 "Hg10 mi
6:30 PMN/ASunny.12 mphN/A29.80 "Hg10 mi
6:00 PM97 °FSunny.12 mph16%29.80 "Hg10 mi
5:30 PMN/ASunny.13 mphN/A29.80 "Hg10 mi
5:00 PM99 °FSunny.14 mph13%29.80 "Hg10 mi
4:30 PMN/ASunny.14 mphN/A29.80 "Hg10 mi
4:00 PM99 °FSunny.10 mph13%29.80 "Hg10 mi
3:00 PM95 °FSunny.12 mph13%29.83 "Hg10 mi
2:30 PMN/ASunny.12 mphN/A29.86 "Hg10 mi
2:00 PM93 °FSunny.12 mph16%29.89 "Hg10 mi
1:30 PMN/ASunny.12 mphN/A29.89 "Hg10 mi
1:00 PM91 °FSunny.14 mph14%29.92 "Hg10 mi
12:30 PMN/ASunny.14 mphN/A29.92 "Hg10 mi
12:00 PM86 °FSunny.14 mph18%29.95 "Hg10 mi
11:30 AMN/ASunny.13 mphN/A29.95 "Hg10 mi
11:00 AM84 °FSunny.12 mph16%29.95 "Hg10 mi
10:30 AMN/ASunny.13 mphN/A29.95 "Hg10 mi
10:00 AM81 °FSunny.10 mph17%29.95 "Hg10 mi
9:30 AMN/ASunny.12 mphN/A29.92 "Hg10 mi
9:00 AM79 °FSunny.12 mph15%29.92 "Hg10 mi
8:30 AMN/ASunny.14 mphN/A29.92 "Hg10 mi
8:00 AM77 °FSunny.12 mph18%29.92 "Hg10 mi
7:30 AMN/ASunny.10 mphN/A29.89 "Hg10 mi
7:00 AM77 °FClear.12 mph18%29.89 "Hg10 mi
6:30 AMN/AClear.13 mphN/A29.86 "Hg10 mi
6:00 AM79 °FClear.16 mph15%29.86 "Hg10 mi
5:30 AMN/AClear.14 mphN/A29.86 "Hg10 mi
5:00 AM79 °FClear.12 mph15%29.83 "Hg10 mi
4:30 AMN/AClear.12 mphN/A29.83 "Hg10 mi
4:00 AMN/AClear.12 mphN/AN/A10 mi
3:30 AMN/AClear.12 mphN/A29.83 "Hg10 mi
3:00 AM82 °FClear.14 mph14%29.83 "Hg10 mi
2:30 AMN/AClear.13 mphN/A29.83 "Hg10 mi
2:00 AM82 °FClear.9 mph14%29.86 "Hg10 mi
1:30 AMN/AClear.9 mphN/A29.86 "Hg10 mi
1:00 AM84 °FClear.9 mph16%29.86 "Hg10 mi
Weather by CustomWeather, © 2015

See weather overviewHow to use our weather pages